SCP
0 0 0 0 0 0 -0 -0 -0 -0 0 0 0 0 0 0 0 0 0 0 0 0
0 0 0 0 0 0 -0 -0 0 0 0 0 0 0 0 0 0 0 0 0 0 0
0 0 0 0 0 0 0 -0 0 0 0 0 0 0 0 0 0 0 0 0 0 0
0 0 0 0 0 0 0 0 0 0 0 0 0 0 0 0 0 0 0 0 0 0
0 0 0 0 0 0 0 0 0 0 0 0 0 0 0 0 0 0 0 0 0 0
0 0 0 0 0 0 0 0 0 0 -0 0 0 0 0 0 0 -0 -0 -0 0 0
0 0 0 0 0 0 0 0 -0 -0 -0 -0 -0 0 0 0 0 -0 -0 0 0 0
0 0 0 0 0 0 0 0 0 0 0 -0 -0 -0 -0 -0 0 0 -0 -0 0 0
0 0 0 0 0 0 0 0 0 0 0 0 0 -0 -0 -0 -0 -0 -0 -0 0 -0
0 0 0 0 0 0 0 0 0 0 0 0 0 0 0 0 0 -0 -0 0 -0 -0
0 0 0 0 0 0 0 0 0 0 0 0 0 0 0 0 -0 0 -0 -0 -0 0
0 0 0 0 0 0 0 0 0 0 0 0 0 0 0 0 0 0 0 0 -0 -0
0 0 0 0 0 0 0 0 0 0 0 0 0 0 0 0 0 0 0 0 0 0
0 0 0 0 0 0 0 0 0 0 0 0 0 0 0 0 0 0 0 0 0 0
Wind_Speed_500mb
51 46 43 45 55 55 58 59 60 51 42 41 45 43 38 30 28 24 19 16 14 13
45 44 42 50 51 52 53 53 49 47 44 41 40 40 36 33 26 23 21 20 16 11
48 47 44 50 56 53 46 47 47 45 44 44 39 35 34 35 34 28 23 19 15 15
44 47 52 53 53 46 45 49 49 45 39 37 34 34 38 41 39 37 33 26 21 18
40 51 55 53 51 50 52 52 50 44 36 29 31 34 37 42 42 45 43 38 27 20
51 56 52 50 47 51 59 56 57 47 41 29 31 33 36 38 37 41 45 49 46 42
53 51 50 48 50 54 55 57 71 61 60 51 40 36 35 34 34 35 39 36 42 44
52 51 51 50 50 50 51 54 56 58 60 55 54 49 41 38 38 34 32 36 34 36
48 51 55 57 54 49 43 45 50 50 55 48 46 46 46 42 39 38 34 32 33 30
47 48 50 50 54 55 47 38 45 46 48 47 41 41 39 29 34 41 38 34 31 29
42 44 53 58 51 48 47 47 52 50 50 49 48 35 36 37 40 43 45 44 40 35
47 44 49 47 50 43 46 51 52 58 53 55 57 49 34 37 36 38 41 41 38 36
42 44 49 52 48 50 47 37 38 56 47 55 52 53 49 40 38 36 37 34 36 39
39 38 43 40 43 42 47 50 47 49 52 53 58 59 65 50 49 41 40 50 39 36
Wind_Direction_500mb
7 9 2 5 6 1 356 354 347 353 359 6 12 14 14 2 353 3 353 350 342 343
13 20 16 9 6 357 354 348 354 9 10 7 17 21 23 29 35 34 34 33 31 25
22 20 14 10 2 1 360 3 10 12 13 16 20 27 32 36 37 37 37 41 52 63
14 21 13 9 10 19 20 18 16 13 15 19 25 31 40 40 37 35 33 30 28 27
20 22 17 24 26 28 25 24 20 17 16 17 24 33 41 42 42 36 33 30 35 40
28 26 25 28 31 26 28 24 22 17 22 22 31 39 38 39 38 42 49 43 47 47
29 27 29 29 23 23 30 34 36 43 42 44 35 39 41 47 47 46 44 40 36 41
35 30 34 30 29 30 35 35 40 40 42 43 46 47 52 56 50 50 49 45 40 39
38 39 37 35 31 29 33 37 39 41 40 41 46 52 58 58 49 43 42 44 41 47
32 35 28 24 26 31 35 37 36 39 37 39 42 35 30 36 42 34 35 36 38 45
34 39 39 31 29 39 42 44 45 44 49 46 42 36 40 47 46 46 45 47 49 50
37 33 30 33 38 45 48 49 57 52 52 43 43 40 37 37 53 48 46 41 43 46
37 40 39 37 42 40 42 49 45 54 56 44 37 35 37 46 49 52 43 39 49 49
38 37 35 32 34 49 47 47 61 57 50 52 47 44 45 47 47 45 46 44 49 52
Wind_Speed_850mb
51 46 43 45 55 55 58 59 60 51 42 41 45 43 38 30 28 24 19 16 14 13
45 44 42 50 51 52 53 53 49 47 44 41 40 40 36 33 26 23 21 20 16 11
48 47 44 50 56 53 46 47 47 45 44 44 39 35 34 35 34 28 23 19 15 15
44 47 52 53 53 46 45 49 49 45 39 37 34 34 38 41 39 37 33 26 21 18
40 51 55 53 51 50 52 52 50 44 36 29 31 34 37 42 42 45 43 38 27 20
51 56 52 50 47 51 59 56 57 47 41 29 31 33 36 38 37 41 45 49 46 42
53 51 50 48 50 54 55 57 71 61 60 51 40 36 35 34 34 35 39 36 42 44
52 51 51 50 50 50 51 54 56 58 60 55 54 49 41 38 38 34 32 36 34 36
48 51 55 57 54 49 43 45 50 50 55 48 46 46 46 42 39 38 34 32 33 30
47 48 50 50 54 55 47 38 45 46 48 47 41 41 39 29 34 41 38 34 31 29
42 44 53 58 51 48 47 47 52 50 50 49 48 35 36 37 40 43 45 44 40 35
47 44 49 47 50 43 46 51 52 58 53 55 57 49 34 37 36 38 41 41 38 36
42 44 49 52 48 50 47 37 38 56 47 55 52 53 49 40 38 36 37 34 36 39
39 38 43 40 43 42 47 50 47 49 52 53 58 59 65 50 49 41 40 50 39 36
Wind_Direction_850mb
7 9 2 5 6 1 356 354 347 353 359 6 12 14 14 2 353 3 353 350 342 343
13 20 16 9 6 357 354 348 354 9 10 7 17 21 23 29 35 34 34 33 31 25
22 20 14 10 2 1 360 3 10 12 13 16 20 27 32 36 37 37 37 41 52 63
14 21 13 9 10 19 20 18 16 13 15 19 25 31 40 40 37 35 33 30 28 27
20 22 17 24 26 28 25 24 20 17 16 17 24 33 41 42 42 36 33 30 35 40
28 26 25 28 31 26 28 24 22 17 22 22 31 39 38 39 38 42 49 43 47 47
29 27 29 29 23 23 30 34 36 43 42 44 35 39 41 47 47 46 44 40 36 41
35 30 34 30 29 30 35 35 40 40 42 43 46 47 52 56 50 50 49 45 40 39
38 39 37 35 31 29 33 37 39 41 40 41 46 52 58 58 49 43 42 44 41 47
32 35 28 24 26 31 35 37 36 39 37 39 42 35 30 36 42 34 35 36 38 45
34 39 39 31 29 39 42 44 45 44 49 46 42 36 40 47 46 46 45 47 49 50
37 33 30 33 38 45 48 49 57 52 52 43 43 40 37 37 53 48 46 41 43 46
37 40 39 37 42 40 42 49 45 54 56 44 37 35 37 46 49 52 43 39 49 49
38 37 35 32 34 49 47 47 61 57 50 52 47 44 45 47 47 45 46 44 49 52